TimeEDT,TemperatureF,Dew PointF,Humidity,Sea Level PressureIn,VisibilityMPH,Wind Direction,Wind SpeedMPH,Gust SpeedMPH,PrecipitationIn,Events,Conditions,WindDirDegrees,DateUTC
12:45 AM,73.4,68.0,83,30.13,10.0,North,8.1,-,N/A,,Scattered Clouds,350,2013-08-17 04:45:00
12:56 AM,73.0,68.0,84,30.14,10.0,North,8.1,-,N/A,,Clear,360,2013-08-17 04:56:00
1:56 AM,73.9,70.0,87,30.12,10.0,North,5.8,-,N/A,,Mostly Cloudy,10,2013-08-17 05:56:00
2:56 AM,73.9,71.1,91,30.13,10.0,North,5.8,-,N/A,,Overcast,360,2013-08-17 06:56:00
3:56 AM,73.9,71.1,91,30.12,10.0,North,4.6,-,N/A,,Overcast,360,2013-08-17 07:56:00
4:56 AM,75.0,72.0,90,30.11,10.0,NNE,6.9,-,0.00,Rain,Light Rain,20,2013-08-17 08:56:00
5:56 AM,75.0,73.0,94,30.11,10.0,NNE,8.1,-,0.00,,Overcast,20,2013-08-17 09:56:00
6:32 AM,75.2,73.4,94,30.10,10.0,NNE,8.1,-,0.00,Rain,Light Rain,30,2013-08-17 10:32:00
6:43 AM,75.2,73.4,94,30.10,10.0,NNE,6.9,-,0.00,Rain,Light Rain,30,2013-08-17 10:43:00
6:56 AM,75.9,73.9,94,30.12,10.0,NE,9.2,-,0.00,Rain,Light Rain,40,2013-08-17 10:56:00
7:56 AM,75.9,73.9,94,30.14,10.0,NE,8.1,-,0.00,,Overcast,50,2013-08-17 11:56:00
8:48 AM,78.8,75.2,89,30.12,10.0,ENE,9.2,-,N/A,,Mostly Cloudy,60,2013-08-17 12:48:00
8:56 AM,78.1,75.0,90,30.14,10.0,ENE,8.1,-,N/A,,Mostly Cloudy,60,2013-08-17 12:56:00
8:59 AM,78.8,75.2,89,30.12,10.0,ENE,9.2,-,N/A,,Overcast,60,2013-08-17 12:59:00
9:03 AM,78.8,75.2,89,30.12,10.0,ENE,9.2,-,N/A,,Overcast,60,2013-08-17 13:03:00
9:33 AM,78.8,75.2,89,30.13,10.0,ENE,9.2,-,N/A,,Overcast,70,2013-08-17 13:33:00
9:49 AM,80.6,75.2,84,30.13,10.0,East,10.4,-,N/A,,Overcast,80,2013-08-17 13:49:00
9:56 AM,79.0,75.0,88,30.15,10.0,ENE,10.4,-,N/A,,Overcast,70,2013-08-17 13:56:00
10:56 AM,80.1,75.0,85,30.15,10.0,East,9.2,-,N/A,,Scattered Clouds,80,2013-08-17 14:56:00
11:56 AM,81.0,73.9,79,30.15,10.0,East,9.2,-,0.01,,Overcast,90,2013-08-17 15:56:00
12:56 PM,82.0,75.0,79,30.14,10.0,East,8.1,-,0.00,Rain,Light Rain,100,2013-08-17 16:56:00
1:56 PM,82.0,72.0,71,30.12,10.0,East,9.2,-,0.00,,Clear,90,2013-08-17 17:56:00
2:56 PM,81.0,75.0,82,30.12,10.0,East,8.1,-,N/A,,Clear,100,2013-08-17 18:56:00
3:47 PM,78.8,75.2,89,30.09,7.0,ESE,12.7,21.9,0.00,Rain,Rain,120,2013-08-17 19:47:00
3:56 PM,77.0,75.0,94,30.10,6.0,SE,13.8,18.4,0.01,Rain,Light Rain,140,2013-08-17 19:56:00
4:56 PM,77.0,75.0,94,30.09,10.0,ESE,10.4,-,0.03,,Overcast,110,2013-08-17 20:56:00
5:56 PM,78.1,75.0,90,30.08,10.0,East,8.1,-,0.00,Rain,Light Rain,100,2013-08-17 21:56:00
6:56 PM,78.1,75.0,90,30.09,10.0,East,9.2,-,0.00,,Overcast,100,2013-08-17 22:56:00
7:56 PM,79.0,75.9,90,30.08,10.0,East,12.7,-,0.00,Rain,Light Rain,100,2013-08-17 23:56:00
8:14 PM,77.0,75.2,94,30.06,2.5,East,11.5,-,0.07,Rain,Heavy Rain,80,2013-08-18 00:14:00
8:16 PM,77.0,75.2,94,30.06,3.0,East,10.4,-,0.07,Rain,Light Rain,80,2013-08-18 00:16:00
8:24 PM,77.0,75.2,94,30.06,9.0,East,11.5,-,0.07,,Overcast,90,2013-08-18 00:24:00
8:56 PM,78.1,75.9,93,30.09,10.0,ESE,8.1,-,0.08,,Overcast,110,2013-08-18 00:56:00
9:09 PM,78.8,75.2,89,30.07,10.0,SE,3.5,-,N/A,,Overcast,130,2013-08-18 01:09:00
9:56 PM,78.1,75.9,93,30.09,10.0,SSE,3.5,-,0.00,,Overcast,160,2013-08-18 01:56:00
10:53 PM,77.0,75.2,94,30.08,10.0,SW,6.9,-,N/A,,Mostly Cloudy,220,2013-08-18 02:53:00
10:56 PM,77.0,75.9,96,30.09,10.0,SW,6.9,-,N/A,,Mostly Cloudy,230,2013-08-18 02:56:00
11:26 PM,77.0,75.2,94,30.08,10.0,WSW,10.4,-,N/A,,Mostly Cloudy,240,2013-08-18 03:26:00
11:56 PM,77.0,75.0,94,30.10,10.0,West,10.4,-,N/A,,Overcast,260,2013-08-18 03:56:00